Погода в Маравиле

Шри-Ланка     7°22′33″N   80°10′02″E
темп.,
°C
ветер,
м/с
пор.,
м/с
влажн.,
%
обл.,
%
осадки,
мм/ч
давл.,
гПа
погр.,
м
17 апреля, сб
сб1723:30+24юв2292100 10.6 101356
02:30+23ююв1395100 0.0 101064
05:30+23ююв1295100 0.0 101163
08:30+27ююз268292 0.0 1013440
11:30+32юз235685 0.0 10121450
14:30+31зюз446346 0.3 1009917
17:30+27юз2585100 2.9 1010162
20:30+25ю1695100 1.5 1013155
18 апреля, вс
вс1823:30+24ю149599 2.3 1013122
02:30+23ю1396100 0.0 101172
05:30+23ююв1296100 0.0 101259
08:30+27ююз268098 0.1 1015437
11:30+32юз345728 0.1 10131472
14:30+33юз324992 0.0 10091947
17:30+28зюз3775100 0.0 1010633
20:30+25ююз2787100 0.0 1013315
19 апреля, пн
пн1923:30+24ю1690100 0.0 1013187
02:30+24ююв1490100 0.0 1010126
05:30+23ююв139199 0.0 101182
08:30+28ююз257387 0.0 1013720
11:30+33юз3351100 0.0 10111729
14:30+34зюз4246100 0.0 10071960
17:30+29зюз367188 0.1 1008651
20:30+25ю278998 0.4 1010298
20 апреля, вт
вт2023:30+24ю1694100 1.3 1011206
02:30+24ююв1695100 0.0 1008185
05:30+23ююв269568 0.0 1009170
08:30+28ююз3677100 0.0 1011756
11:30+33юз335397 0.1 10101754
14:30+32зюз44566 0.3 1007977
17:30+29юз36731 0.6 1007533
20:30+25ююз27945 1.6 1010218
21 апреля, ср
ср2123:30+24ю279621 2.8 1011227
02:30+24ю169719 0.2 1009179
05:30+23ю149711 0.2 1010130
08:30+27ююз258047 0.0 1012605
11:30+33юз335323 0.0 10111648
14:30+34юз434732 0.0 10071777
17:30+27юз2681100 1.6 1009246
20:30+25ю399057 0.3 1011395